Wind_Speed
23 23 21 23 25 23 22 21 21 21 19 19 20 21 23 22 21 20 21 22 21 20 21 22 22 20 20 22 23 24 24 25 25 24 24 23 23 23 22 21 20 20 20 22 22 23 23 24 24 25 27 28 28 28 27 26 26 26 26 25 25 25 24 21 18 15 12 10 8 7 6 6 6 6 6 6 6 6 7 7 7 8 9 10 10 10
22 22 20 22 23 22 21 19 18 17 13 12 14 17 19 18 19 21 21 20 18 17 18 19 19 18 19 22 23 23 22 24 24 24 23 23 24 23 22 21 20 20 20 20 21 22 22 23 24 25 26 27 28 28 28 28 27 27 27 27 26 26 25 24 22 19 15 13 10 9 8 7 7 6 6 6 5 4 4 5 5 6 7 9 9 9
19 16 16 20 20 18 17 14 14 13 8 8 11 14 15 15 17 20 20 18 16 15 14 15 17 17 18 21 23 21 21 22 22 22 23 24 24 23 22 21 20 20 19 19 20 21 22 22 23 24 24 25 27 28 28 28 29 28 28 28 28 27 26 26 24 22 19 16 13 11 9 9 8 8 7 7 6 5 4 3 3 4 5 6 7 7
15 10 11 16 17 14 13 11 12 9 3 4 10 13 12 13 15 17 18 17 16 16 14 13 16 18 19 22 22 20 19 20 20 21 22 23 23 23 23 22 21 20 18 17 19 20 21 22 22 22 23 24 25 27 28 28 29 29 29 29 28 28 27 27 26 24 22 19 16 12 11 10 10 9 8 8 8 7 6 5 4 3 2 3 4 5
12 6 7 11 13 13 11 9 9 8 3 1 5 9 10 13 14 14 16 16 15 16 15 14 16 17 19 21 20 18 18 19 19 21 21 21 21 21 23 23 21 19 17 17 18 18 19 20 21 21 21 22 24 25 26 27 28 28 28 29 29 28 28 27 26 25 24 23 20 16 13 11 10 9 9 9 8 8 7 7 6 5 3 3 3 4
9 5 7 10 12 14 12 10 10 8 4 1 2 6 7 9 11 12 14 13 13 15 16 16 15 15 18 18 17 17 16 17 19 21 21 19 18 19 21 21 20 19 17 17 18 18 18 18 19 19 20 20 22 23 24 25 25 26 27 27 28 28 28 28 27 26 25 25 23 21 17 15 13 11 10 10 9 9 8 7 6 5 5 4 3 4
6 3 8 12 12 14 12 9 10 9 6 4 6 8 7 7 9 12 13 11 10 12 14 15 15 16 18 17 16 16 16 17 20 21 20 17 17 17 18 19 20 20 19 19 18 17 17 17 17 18 18 19 19 21 22 22 23 24 25 26 27 27 27 28 28 27 26 25 25 23 22 20 18 16 14 11 10 10 9 8 7 6 5 4 4 4
6 6 11 12 12 13 12 9 10 9 7 8 11 11 7 6 10 12 13 11 9 9 11 14 15 15 17 17 16 17 17 18 20 20 19 17 17 17 17 19 20 21 21 21 19 17 16 16 16 16 16 17 17 19 20 20 21 21 22 24 25 25 26 27 27 27 27 26 26 25 24 23 22 21 19 16 13 11 10 9 8 7 6 5 4 3
11 12 13 13 12 13 12 10 10 9 6 7 10 10 6 5 9 11 11 9 8 9 11 13 13 14 16 18 18 18 19 19 19 18 18 17 17 16 16 18 20 22 22 21 19 17 16 16 16 15 15 15 15 16 17 18 18 18 19 21 22 23 23 24 25 26 26 26 26 26 25 25 24 23 22 20 18 16 15 12 10 8 7 6 5 4
13 12 12 12 12 11 8 7 6 5 5 5 6 6 3 3 6 8 7 6 7 8 11 13 13 12 14 17 18 18 19 19 19 18 18 17 16 15 16 17 19 21 21 20 19 18 17 16 16 15 14 14 14 14 14 15 15 16 17 17 19 20 21 21 22 23 24 25 25 25 25 25 25 24 23 22 22 20 19 18 16 14 12 9 7 5
11 11 11 11 10 8 7 6 6 5 3 3 4 5 3 3 5 4 3 4 5 7 10 14 14 12 11 13 16 17 19 19 18 19 18 17 16 15 15 16 18 18 18 19 20 20 18 17 16 15 14 14 13 12 12 12 13 14 14 15 16 17 17 18 19 20 21 22 22 23 23 23 23 23 23 23 23 22 22 21 20 19 18 15 13 11
10 9 9 8 7 6 6 6 6 6 4 3 4 4 4 5 5 2 2 5 6 7 12 15 14 12 10 10 13 15 19 19 19 19 18 15 15 15 15 15 16 16 16 18 20 20 19 17 17 16 16 15 14 12 11 11 11 11 12 12 13 13 14 15 16 17 18 18 19 20 20 20 21 21 22 22 23 23 22 22 22 21 20 19 18 16
9 7 7 7 6 5 6 5 5 5 4 5 5 5 5 6 5 4 5 6 6 7 12 15 13 10 9 9 11 14 16 17 18 18 17 15 14 14 14 14 14 14 15 17 18 18 18 18 17 17 17 16 15 14 13 12 10 10 10 10 10 11 11 12 13 14 14 15 16 16 17 17 18 18 19 19 20 20 21 21 21 21 21 21 20 20
7 6 5 6 4 4 5 5 4 4 5 7 7 5 6 5 4 5 6 7 7 7 10 12 10 8 8 9 11 13 13 14 16 15 16 16 14 13 13 12 12 13 14 16 16 17 17 18 18 17 17 16 16 15 14 13 12 10 9 9 9 9 9 10 10 11 11 12 12 13 13 14 14 15 15 16 17 17 18 18 18 18 19 19 20 20
4 4 4 4 3 3 4 4 4 4 6 7 5 4 5 4 4 5 7 8 8 6 6 8 8 7 7 9 11 12 12 13 12 9 11 14 13 12 11 9 10 11 12 14 14 15 16 16 17 17 17 16 16 16 15 14 13 12 12 11 10 9 9 9 9 9 9 9 10 10 10 11 11 11 12 13 13 14 14 14 15 15 15 16 17 17
3 3 1 2 1 1 3 4 4 5 6 6 4 5 5 4 5 6 6 7 7 6 5 6 7 8 9 9 11 12 12 12 10 6 8 11 11 10 10 9 10 10 10 11 12 14 15 15 17 17 17 17 17 16 15 14 14 14 14 13 12 11 11 10 9 9 9 8 8 9 8 9 9 9 9 9 10 10 11 11 12 12 13 14 14 15
2 2 1 1 1 2 2 3 4 5 5 5 5 6 5 4 5 5 5 5 6 7 8 8 10 11 11 11 11 11 11 11 9 8 9 10 10 9 9 8 9 10 11 11 12 13 14 16 17 17 17 17 17 16 16 15 14 15 15 14 14 13 12 12 11 11 10 10 9 9 9 9 8 8 8 8 7 8 8 9 9 10 11 12 12 13
1 2 1 3 1 1 1 3 3 3 4 4 5 6 5 5 4 4 4 4 6 8 10 11 12 12 13 13 12 12 12 12 11 11 10 11 11 10 10 10 10 11 13 13 13 14 15 17 17 17 17 17 16 17 17 16 16 16 16 15 15 14 13 13 13 12 12 12 11 11 10 10 10 10 9 9 8 8 7 7 7 8 9 10 10 11
2 1 1 3 1 1 1 2 2 1 2 3 3 4 5 5 4 4 5 6 7 9 11 12 13 14 14 14 14 13 13 13 14 14 14 13 14 14 13 12 12 13 14 15 15 15 15 15 16 16 15 15 16 17 17 17 17 17 16 16 15 15 14 14 14 14 13 13 13 13 12 12 12 11 11 11 11 11 10 9 8 8 8 9 9 9
1 2 2 2 0 0 1 1 1 1 0 1 2 3 4 5 5 4 5 6 7 8 10 12 13 13 14 15 15 15 15 15 16 17 17 16 16 17 17 14 13 13 14 15 15 15 15 14 15 15 15 15 16 17 17 17 17 17 16 16 15 15 15 15 15 14 14 14 14 14 13 13 13 12 12 12 12 13 13 13 12 11 10 10 10 10
3 4 5 3 1 2 3 2 2 2 2 1 2 1 2 4 4 5 5 6 7 8 10 12 11 12 13 15 16 16 16 15 16 17 18 17 16 17 18 17 15 14 13 14 15 15 15 15 14 15 16 16 16 16 16 16 17 17 17 16 16 15 15 15 15 14 14 14 14 14 14 14 13 13 13 13 13 13 14 15 15 15 14 13 13 12
5 6 7 4 1 3 4 3 3 3 3 1 0 2 3 3 5 6 7 7 9 10 11 12 12 13 14 15 16 15 15 15 17 18 18 18 17 16 17 19 18 16 14 14 15 15 16 16 15 15 16 17 16 16 15 16 16 16 17 17 17 16 16 16 15 15 14 14 14 15 15 15 15 15 15 14 14 14 14 14 15 16 16 16 15 15
7 7 8 6 3 4 5 4 4 4 3 2 2 3 4 5 6 8 9 10 11 11 13 14 15 15 16 17 17 17 16 15 16 17 17 18 19 18 19 19 19 19 17 16 16 16 16 17 17 16 16 17 18 17 16 16 16 15 15 15 16 17 17 16 16 16 16 15 15 15 15 15 16 16 16 16 16 15 15 15 15 16 16 17 17 17
7 8 9 7 4 5 5 4 5 6 5 4 4 5 7 8 9 9 10 12 12 12 15 16 16 17 18 19 19 19 18 17 15 14 14 16 17 18 19 19 19 19 19 18 17 17 17 16 17 17 16 16 17 17 17 16 16 15 14 14 14 15 16 17 17 17 17 17 17 16 16 16 16 16 17 17 17 17 17 16 16 16 16 17 17 18
7 8 9 8 6 5 5 5 6 6 5 5 6 8 10 11 11 11 12 12 13 14 15 16 16 18 20 20 21 21 19 18 15 13 14 15 16 16 17 18 18 18 19 20 19 18 17 17 17 17 16 16 16 16 16 16 17 17 16 15 15 15 15 17 17 18 17 17 17 17 18 18 18 18 18 18 18 18 18 18 18 17 18 17 18 18
7 9 10 10 8 7 6 6 7 8 8 9 10 10 10 11 14 15 14 14 14 16 16 17 17 19 21 22 22 22 21 19 17 15 16 16 15 14 16 18 18 18 18 19 19 19 18 17 17 16 16 16 15 15 15 16 17 18 18 18 17 17 16 16 17 17 17 17 17 17 17 18 18 18 18 18 19 19 19 19 19 19 19 18 18 18
9 9 10 10 10 10 9 9 9 10 12 13 14 13 12 12 13 16 17 16 15 16 17 19 20 20 21 23 23 22 22 22 21 20 20 20 18 16 16 17 19 19 18 17 17 18 18 18 18 18 16 15 16 16 16 16 17 17 18 19 19 19 18 17 17 17 18 18 18 18 18 17 17 18 18 18 19 19 19 19 19 19 19 20 20 19
10 10 10 11 11 11 12 12 12 12 14 15 15 16 16 15 14 15 17 17 17 16 17 19 19 18 20 23 23 22 22 23 24 23 23 23 22 20 18 17 18 19 19 17 17 17 17 17 18 19 19 17 17 18 18 18 17 17 17 18 19 20 20 20 20 20 20 20 20 19 19 19 19 19 19 19 19 19 19 19 19 19 20 20 21 20
12 11 11 12 12 13 14 15 15 15 14 14 16 18 19 19 17 16 17 18 18 17 17 18 18 18 20 21 20 20 20 21 21 22 22 23 22 22 21 18 17 18 19 18 17 16 16 16 17 19 20 20 19 19 20 20 19 19 18 18 19 20 21 21 21 21 22 21 21 21 21 22 22 22 21 21 20 19 19 19 19 19 20 20 20 20
13 13 13 13 14 15 16 17 18 17 16 15 16 18 20 20 19 18 18 18 18 17 16 16 15 17 20 19 16 17 18 19 19 19 19 20 20 21 21 19 16 16 16 16 15 14 14 15 16 17 19 21 21 21 21 21 22 21 21 20 20 20 21 22 22 22 23 23 23 23 22 22 23 23 23 23 23 22 21 20 20 20 20 20 20 20
14 15 15 15 15 17 19 19 20 19 17 14 15 18 19 19 18 17 17 17 16 16 14 13 12 14 18 18 16 16 17 17 16 15 15 15 16 17 19 19 17 15 14 14 14 13 13 14 15 17 18 20 21 21 21 21 21 22 22 22 22 22 22 22 22 23 23 23 24 24 23 23 23 23 22 22 23 24 24 23 22 22 22 22 22 21
15 16 17 16 15 17 20 20 19 19 16 13 14 16 16 16 16 16 16 16 16 15 13 12 11 12 16 18 17 17 16 14 13 12 13 13 13 13 15 17 17 15 14 13 13 13 12 13 14 15 16 18 20 21 21 21 21 22 22 23 23 23 23 23 23 23 23 23 24 24 24 24 24 23 23 22 22 22 23 23 23 22 23 23 23 23
16 17 18 17 15 16 20 20 18 17 16 15 14 13 14 14 14 15 16 17 17 15 13 13 13 14 16 18 19 19 17 15 14 14 14 12 11 11 13 15 16 15 15 15 14 14 14 15 16 17 17 18 19 20 21 21 22 22 22 23 24 24 24 24 24 25 25 25 25 25 25 25 24 24 24 23 23 22 22 22 22 22 22 22 23 23
17 17 19 17 14 15 17 18 17 16 16 16 14 12 13 14 14 15 17 18 18 16 13 12 13 15 17 18 19 19 18 18 16 14 14 15 14 12 13 14 15 14 15 15 15 17 18 20 21 22 22 22 22 23 23 23 22 22 22 23 24 24 24 24 25 25 26 26 26 26 26 26 25 25 25 24 24 24 23 23 23 22 22 22 23 23
16 17 17 17 15 15 16 17 17 16 17 18 17 16 15 15 15 17 19 21 22 19 16 14 13 15 17 18 19 19 18 18 16 14 15 17 18 16 15 15 15 15 16 16 17 19 21 22 24 24 25 25 25 25 25 24 23 23 23 24 25 26 25 24 24 25 26 26 26 26 25 25 25 25 26 26 26 26 26 25 24 23 23 23 23 22
16 17 17 16 16 15 16 18 18 18 19 20 21 21 19 19 19 20 21 23 24 23 22 18 14 15 18 19 20 20 19 17 16 16 17 19 21 20 19 18 17 17 18 19 20 20 22 24 26 26 26 26 26 26 26 26 26 26 26 26 27 27 27 26 24 24 24 24 25 24 25 25 25 25 26 26 27 28 27 26 25 24 23 24 24 23
17 18 18 18 18 17 18 19 20 20 20 21 23 24 23 22 22 23 24 26 26 26 25 21 16 16 19 21 22 22 20 18 17 17 18 20 21 22 22 21 19 18 18 19 21 23 25 26 27 27 26 27 27 27 27 27 27 27 27 27 27 28 29 28 27 25 25 24 24 25 25 26 27 27 27 27 27 28 29 28 27 25 24 25 25 24
21 20 20 20 19 19 20 21 22 22 20 21 24 25 24 24 25 25 25 26 26 26 25 22 18 17 18 21 22 20 19 20 20 21 21 21 21 22 22 21 20 20 20 21 22 24 25 26 27 27 27 28 28 29 28 27 27 27 28 28 28 29 31 31 31 30 29 29 28 28 28 28 28 28 28 27 27 27 28 28 28 26 25 24 24 23
24 23 23 22 21 21 23 25 25 24 21 22 25 26 25 25 25 25 25 24 23 23 22 20 19 19 18 19 19 18 19 22 25 26 26 24 22 20 20 21 22 22 22 22 22 23 24 25 26 26 27 28 29 29 29 28 27 27 28 28 29 30 32 33 34 33 33 33 33 32 32 31 31 30 30 29 27 26 26 27 28 26 23 22 21 21
26 27 26 25 25 25 27 28 27 26 24 24 26 27 25 24 24 24 24 23 22 22 22 22 22 21 18 15 16 19 22 25 27 29 29 28 25 22 22 23 23 24 24 24 24 24 25 25 25 25 26 27 28 29 30 30 29 28 28 28 28 30 33 34 34 34 34 34 35 35 34 33 32 32 32 31 29 28 27 27 27 26 24 22 22 22
28 29 29 28 28 29 30 31 30 28 25 24 25 26 26 26 26 26 25 24 24 23 23 24 23 22 19 18 20 23 26 27 27 27 28 28 26 26 27 27 26 25 25 27 28 29 29 28 27 26 26 26 27 29 30 31 31 31 31 31 30 32 34 35 34 34 34 34 34 36 36 35 34 33 32 32 32 30 29 29 28 28 27 27 26 26
30 31 32 31 30 31 32 33 33 30 26 24 25 26 27 26 26 25 25 25 25 25 25 25 25 24 24 24 26 27 28 26 25 25 25 25 25 26 28 29 28 27 28 30 32 33 33 33 32 31 29 29 29 30 31 32 32 32 33 33 33 34 35 35 35 34 33 33 33 34 35 36 36 35 33 33 33 32 31 30 30 29 29 30 30 30
33 34 34 33 33 34 35 35 35 33 29 28 28 29 29 28 26 26 26 26 27 28 29 28 28 28 28 29 30 30 29 27 25 25 24 24 25 26 28 29 30 31 33 35 37 37 37 36 36 35 34 33 33 33 34 35 35 34 34 33 34 35 36 37 36 36 34 33 32 33 34 36 37 36 35 34 35 34 33 32 32 31 31 31 32 32
36 36 36 36 36 36 36 37 36 35 33 32 31 30 31 31 30 29 29 28 28 29 29 29 29 30 30 30 30 30 29 28 28 27 27 26 27 28 29 31 33 35 37 39 40 39 39 38 38 38 38 37 37 37 37 38 38 38 37 36 36 37 37 38 39 38 37 35 34 34 34 35 36 37 37 36 36 36 35 34 34 34 33 33 33 34
39 39 38 37 37 38 37 37 37 36 35 35 33 32 32 32 32 32 30 29 28 27 28 29 30 30 30 30 30 30 30 31 31 31 31 31 31 32 33 35 37 38 39 39 38 38 37 38 38 39 39 39 39 40 40 41 41 40 39 39 39 39 39 40 41 41 40 39 38 37 37 38 38 39 39 39 39 38 38 37 37 37 36 36 36 36
40 40 39 39 39 39 38 38 37 37 37 36 34 34 33 34 34 34 32 30 29 29 31 33 33 33 33 33 33 33 34 35 35 36 35 36 36 36 36 37 38 39 39 38 37 37 37 38 40 41 41 41 40 41 42 42 43 42 40 39 39 39 40 41 42 43 43 43 42 42 41 41 41 41 42 42 41 41 39 39 40 40 40 39 39 40
42 42 41 40 40 39 38 38 38 36 36 36 36 36 37 37 37 35 35 35 35 36 36 36 35 35 35 36 36 38 38 38 38 38 39 39 39 39 38 38 39 39 38 38 38 39 40 42 43 44 44 44 44 43 44 44 43 43 41 41 41 41 41 42 43 43 44 43 43 43 43 43 43 43 43 44 44 43 42 41 41 41 41 41 42 43
44 43 42 41 41 40 40 40 39 38 38 38 38 39 40 41 40 39 38 39 40 41 41 39 38 37 38 39 40 41 40 40 40 41 42 42 41 42 43 43 42 41 40 40 41 43 44 46 47 47 46 46 46 46 46 46 45 45 44 44 45 45 45 45 44 44 44 44 44 44 44 44 44 44 45 45 45 44 43 42 42 42 42 42 43 43
45 44 43 43 42 40 40 41 40 39 40 40 40 41 41 42 41 40 40 42 44 45 45 43 42 42 42 43 43 43 42 42 42 43 43 44 45 46 46 46 45 44 44 45 46 46 48 48 49 48 48 48 48 48 47 47 47 46 46 46 47 48 48 47 47 47 46 45 45 45 45 46 46 47 47 47 46 45 44 43 43 43 43 42 42 42
45 44 44 44 43 42 42 42 42 42 42 42 43 44 44 44 44 44 45 47 48 48 47 46 45 45 45 44 44 44 45 45 45 45 46 47 47 47 46 46 46 47 47 48 49 49 50 50 50 50 50 50 49 49 49 48 48 48 48 48 48 48 48 49 49 50 49 47 46 46 47 47 48 50 50 49 47 45 44 44 44 43 42 42 42 42
46 46 45 45 44 44 44 45 46 46 46 47 48 48 48 48 49 49 50 50 50 49 49 49 48 48 47 47 47 48 47 47 48 48 48 49 48 48 48 49 50 51 51 51 51 51 51 52 52 53 52 52 51 51 50 50 49 49 49 49 49 49 50 50 51 51 51 50 49 48 48 48 49 49 49 48 46 45 44 44 44 42 42 42 42 42
Wind_Direction
87 85 89 89 83 74 64 60 56 50 38 31 40 55 59 52 52 59 65 74 74 66 64 65 65 63 63 63 60 56 54 51 49 45 41 40 43 44 42 40 40 39 38 37 37 36 36 36 34 33 35 37 38 38 37 37 38 38 38 38 38 39 38 36 32 29 29 29 28 22 8 358 351 342 338 340 343 334 317 307 298 290 287 285 283 276
82 83 91 90 83 72 62 57 57 56 44 36 43 54 60 53 52 55 56 65 69 61 58 60 61 58 57 58 55 51 49 50 47 42 38 35 37 40 39 38 36 36 37 37 37 37 37 37 36 34 34 37 38 38 38 38 39 39 39 40 39 40 41 41 39 36 35 39 44 44 37 33 30 23 15 10 4 347 321 303 293 286 284 285 286 283
74 80 88 82 76 74 72 72 71 65 43 47 65 69 70 64 56 53 50 51 51 50 54 60 60 54 52 53 49 44 43 47 46 41 36 32 31 33 36 37 34 33 34 36 38 38 38 38 37 36 34 37 40 40 39 38 39 40 40 40 41 41 41 42 43 43 42 43 48 51 48 45 41 37 33 31 30 27 13 346 313 286 279 278 282 285
77 81 87 83 82 80 79 91 100 94 43 30 65 75 81 76 61 50 46 40 37 47 57 63 60 52 51 49 44 38 39 44 46 43 39 32 27 26 30 34 33 31 31 35 39 38 38 39 38 37 35 37 40 41 40 39 39 40 41 41 42 42 42 42 43 44 45 46 47 49 48 46 44 40 37 39 37 35 33 26 19 354 312 292 288 291
93 81 67 79 93 91 77 79 94 105 140 255 49 64 74 75 67 50 40 32 31 45 51 52 52 47 45 46 42 37 36 42 46 46 43 35 27 24 26 30 30 28 28 33 39 38 37 38 38 38 37 37 41 43 42 41 41 41 43 43 43 43 44 44 45 45 45 46 46 47 46 46 45 42 40 42 41 39 39 38 37 30 16 359 334 319
103 84 46 57 81 86 74 62 65 73 92 132 49 55 54 63 70 51 35 25 24 36 39 39 41 40 39 40 42 41 38 42 45 45 44 36 28 26 26 28 29 28 27 32 37 38 37 38 37 37 38 39 42 45 45 44 44 45 46 46 46 46 46 46 47 47 46 46 47 48 48 47 46 45 43 40 40 40 40 41 44 43 34 22 5 343
87 54 48 59 75 81 74 63 66 71 76 74 66 69 60 55 67 53 36 28 22 28 33 38 41 39 36 35 40 42 39 42 44 43 42 38 33 30 28 29 31 30 29 31 33 34 36 38 37 36 38 40 43 48 49 47 47 47 49 50 50 49 49 49 50 51 51 49 49 50 50 49 49 50 48 43 40 40 41 42 43 42 36 25 11 349
72 66 73 80 83 84 87 87 85 84 76 65 69 80 83 71 71 57 40 32 29 33 39 43 44 40 35 32 35 40 41 42 43 42 40 38 36 32 28 28 32 32 30 29 28 27 31 36 38 34 35 39 43 48 51 50 49 49 50 51 52 51 51 52 53 53 54 53 52 52 52 51 50 51 52 50 48 46 46 45 41 38 33 25 12 348
80 83 88 91 87 87 93 97 99 101 87 68 74 84 80 62 66 61 47 33 33 44 46 48 48 40 35 32 30 34 38 39 40 41 39 39 36 31 28 28 30 31 31 31 29 27 27 30 34 32 31 35 41 48 51 51 52 52 52 52 53 54 53 54 54 54 55 54 54 53 53 53 52 52 52 53 53 52 52 51 46 42 36 30 18 0
80 82 84 82 80 80 75 69 73 90 99 87 95 110 107 75 72 74 69 39 32 39 42 51 52 38 31 29 25 29 35 35 36 37 37 38 35 28 25 28 30 29 28 29 31 32 30 29 29 29 29 30 33 41 46 49 52 54 54 53 53 55 55 55 55 55 56 56 55 55 54 53 53 53 53 53 53 53 54 53 52 50 48 45 37 25
85 83 80 75 73 66 49 31 14 7 31 68 110 145 147 91 76 88 97 45 29 28 40 56 54 40 32 25 17 22 29 28 29 32 32 35 35 27 22 24 29 29 25 25 28 30 31 31 29 26 25 27 26 31 39 43 48 51 52 53 54 55 56 56 56 56 57 57 57 57 55 54 54 54 53 53 53 53 53 53 53 53 53 52 51 48
100 95 90 82 77 69 51 33 11 1 4 40 91 116 95 78 78 94 86 47 24 19 38 54 54 49 50 33 15 19 24 21 21 25 25 30 34 28 20 19 24 26 23 24 25 25 26 28 30 27 22 21 20 22 26 30 36 43 44 47 51 53 53 54 56 56 56 56 56 56 56 56 55 55 54 53 53 52 51 52 51 51 52 52 53 54
123 125 114 96 82 75 68 49 23 20 40 58 62 66 67 73 74 59 50 47 31 20 32 41 45 50 56 41 21 23 27 21 17 15 12 19 27 26 21 13 14 18 18 22 24 22 22 22 25 27 24 19 16 13 13 14 18 26 31 35 40 45 48 49 51 53 53 53 54 54 54 55 55 56 55 54 54 53 52 51 50 49 48 49 49 50
143 140 113 96 79 60 60 53 41 37 49 53 46 41 50 60 65 49 36 42 42 29 27 28 27 31 41 36 20 23 34 28 19 8 -0 5 13 21 23 11 4 10 14 18 20 19 19 19 20 22 23 21 16 11 7 6 5 7 12 16 18 25 33 37 38 41 44 48 50 51 51 51 52 53 54 54 54 53 53 52 51 49 47 46 46 45
116 114 100 97 88 38 39 39 38 39 44 50 45 35 42 45 52 45 29 32 34 29 28 19 15 26 36 29 15 21 35 32 27 19 1 358 359 9 18 11 359 -0 9 12 12 13 14 15 17 15 16 19 17 12 8 5 2 359 359 359 1 4 8 15 20 22 25 31 37 41 43 45 46 47 49 51 51 51 50 50 49 48 46 44 44 43
61 92 119 128 108 23 38 35 22 33 40 43 45 45 43 34 36 34 21 21 19 13 19 17 25 40 39 23 12 17 27 28 30 39 19 1 353 356 6 9 357 349 357 2 0 5 8 9 13 12 9 11 10 8 8 7 4 1 357 353 351 352 352 354 358 0 2 5 11 17 22 28 33 35 37 41 45 46 45 43 41 40 38 39 39 38
32 55 333 297 36 0 32 40 26 33 27 16 26 33 28 30 35 28 13 6 357 359 9 16 27 32 24 14 9 13 21 24 24 31 23 4 351 349 355 1 355 343 343 347 349 354 359 4 8 8 7 5 2 1 1 2 5 4 359 353 350 349 348 347 346 345 345 346 348 351 355 0 6 9 11 15 22 28 31 30 27 26 25 27 28 28
8 58 311 287 333 33 51 56 49 40 19 8 25 22 15 26 30 19 16 356 338 353 6 11 17 19 13 6 1 5 16 18 14 15 14 360 346 345 353 353 350 346 340 338 341 345 351 356 357 -0 4 0 357 359 357 357 -0 -0 356 353 352 350 349 348 346 343 340 339 338 338 338 340 343 346 347 347 350 354 360 5 7 8 8 10 12 14
344 37 276 288 337 68 85 80 89 68 20 10 30 31 27 33 27 21 24 2 338 347 360 3 5 7 4 357 350 355 7 9 5 1 359 354 344 340 345 347 344 345 340 334 334 337 342 345 345 347 352 353 354 357 357 356 357 354 350 349 349 347 348 350 349 346 344 342 339 337 335 333 332 332 333 333 333 332 332 335 340 345 347 347 349 353
277 260 250 261 337 264 242 191 165 158 50 22 48 53 39 38 40 38 31 7 343 339 349 355 355 352 351 347 345 348 353 358 359 354 348 346 342 335 333 337 337 337 335 331 328 328 329 330 333 335 338 345 350 353 353 355 355 351 346 346 345 344 346 349 349 348 347 346 345 342 340 337 334 330 328 326 325 323 323 323 324 326 327 327 328 332
258 258 259 253 180 235 248 223 195 193 193 121 73 57 32 33 25 15 9 355 342 335 341 348 345 339 338 340 342 341 342 349 353 349 342 338 338 334 328 327 327 326 326 323 321 321 320 321 324 327 330 336 342 345 347 350 352 349 345 344 345 345 345 346 345 345 346 347 347 346 345 343 341 339 335 331 327 323 321 320 319 319 318 317 316 317
256 258 265 269 231 235 251 249 231 212 200 189 11 345 0 4 352 352 346 336 337 335 332 335 333 331 331 331 334 335 337 343 343 339 335 331 333 334 327 321 320 319 317 315 314 315 317 317 319 323 326 328 332 335 339 344 347 346 344 344 345 345 345 343 341 341 343 344 345 345 346 345 345 345 344 341 336 331 325 320 317 316 315 313 312 311
262 267 269 270 256 246 254 267 275 266 255 277 311 321 326 327 330 337 332 327 332 329 323 324 324 325 325 324 326 328 330 332 332 330 327 324 327 327 322 318 317 317 315 312 311 312 315 317 319 322 324 324 327 330 334 337 337 336 340 342 343 343 344 343 342 341 341 342 342 343 344 344 344 344 344 343 341 338 332 327 322 319 316 314 312 311
267 271 271 269 256 252 266 287 288 275 273 286 298 303 309 314 320 323 321 320 321 317 315 319 320 318 318 318 320 320 320 322 328 328 318 312 315 316 314 316 317 316 315 313 311 309 311 314 317 320 321 323 325 326 328 328 325 326 332 336 338 340 341 342 342 343 343 343 342 342 342 342 342 341 341 341 339 337 335 332 329 325 322 319 317 315
264 267 272 275 268 260 273 291 284 273 268 273 284 298 307 309 308 307 307 309 309 308 310 313 313 310 311 312 312 312 314 320 324 318 304 299 305 310 312 315 316 315 315 314 312 309 308 309 313 317 319 321 321 321 321 320 320 322 325 329 332 336 339 342 342 342 343 343 342 342 341 341 340 339 338 337 335 334 332 331 330 327 325 323 322 319
262 267 273 279 281 280 278 276 279 281 276 273 280 290 295 296 298 301 302 304 306 307 308 307 306 307 309 309 309 313 319 322 320 314 307 307 312 314 312 311 311 312 312 312 311 308 306 307 307 309 312 313 313 312 311 312 317 320 323 326 328 330 335 339 339 339 340 339 339 338 338 336 334 333 333 332 331 331 329 327 326 326 324 323 322 320
261 264 271 277 282 285 281 275 275 279 278 279 282 283 281 285 294 300 302 304 305 305 305 305 308 312 310 309 315 323 326 324 322 322 319 320 321 318 312 310 309 310 312 312 310 307 306 305 303 302 301 302 304 305 306 309 314 318 320 322 323 324 327 330 332 333 334 333 333 333 331 329 327 327 327 327 326 326 324 322 322 321 321 321 320 319
261 264 270 276 279 280 280 277 274 275 279 284 289 290 290 291 296 299 300 302 303 304 304 305 311 312 306 308 320 327 325 322 322 323 322 323 323 319 317 316 315 316 317 316 313 310 307 306 304 303 303 303 303 304 305 306 307 309 311 313 316 319 321 324 325 326 326 327 328 327 325 324 324 324 323 322 321 319 318 317 317 317 318 319 319 317
261 264 266 268 272 275 277 279 280 279 281 288 294 296 297 298 300 299 298 299 301 303 303 304 310 308 301 309 323 323 318 317 319 319 320 320 317 314 316 322 323 321 320 318 316 313 308 304 302 301 302 303 303 302 302 303 303 303 304 307 312 316 318 319 320 320 320 321 321 321 321 321 321 320 318 316 314 313 312 312 312 313 314 315 315 312
259 262 263 265 270 274 276 278 281 282 286 293 295 293 293 295 298 298 297 298 299 300 301 304 308 303 301 311 320 314 310 312 313 315 316 315 313 313 318 324 324 318 315 314 314 313 307 300 295 292 293 296 298 300 301 301 303 305 306 308 310 311 312 313 314 315 315 316 316 317 317 316 314 313 313 312 311 310 310 309 309 309 310 311 311 309
264 266 267 268 272 274 275 278 280 284 292 296 290 286 288 292 294 295 296 296 295 298 301 304 304 300 301 308 313 308 308 312 314 315 313 313 317 317 315 316 315 311 307 307 308 305 299 292 288 286 287 290 294 296 298 300 303 305 308 309 309 309 310 310 311 312 312 312 312 312 311 309 308 307 307 307 308 309 309 309 309 308 308 309 309 310
268 268 269 270 272 273 276 279 282 288 293 290 284 286 289 291 294 297 298 297 298 303 309 312 313 309 304 307 310 311 316 324 326 322 317 319 323 319 311 310 312 312 310 308 305 302 297 293 290 289 289 290 293 295 298 302 305 308 310 310 310 310 311 311 310 310 309 309 308 307 306 305 304 304 303 303 304 304 305 305 305 305 305 306 308 310
270 270 271 272 272 274 278 282 286 290 292 289 290 292 291 292 298 301 299 298 300 308 317 320 320 314 307 309 312 314 320 327 328 325 322 321 322 319 315 315 316 317 316 314 312 310 310 309 307 305 303 301 301 302 303 305 307 308 309 309 309 310 310 310 311 310 310 309 307 306 305 305 304 304 305 306 305 304 302 301 300 301 302 303 304 306
270 271 274 277 275 272 276 282 286 290 291 292 296 296 292 294 299 298 296 296 299 305 312 316 317 312 308 310 312 312 316 321 325 326 323 319 318 319 319 318 317 314 311 310 310 311 313 315 316 316 315 314 312 311 309 308 308 308 309 308 307 306 306 307 308 308 307 306 305 304 304 304 305 305 306 306 306 304 303 302 301 301 300 300 301 302
264 265 268 273 275 273 275 280 286 291 293 295 297 295 292 292 293 293 293 295 298 302 305 310 313 311 308 308 308 309 312 317 323 324 319 314 313 315 320 320 317 311 306 306 307 311 315 319 321 321 319 318 317 315 314 312 311 310 309 307 305 304 304 304 304 302 302 302 302 303 303 303 303 303 304 304 304 303 303 303 301 299 298 297 298 299
262 262 261 263 268 273 277 280 285 288 290 293 295 293 292 293 293 293 294 295 298 302 303 307 312 309 305 304 304 304 308 314 319 317 313 311 312 316 320 321 317 312 307 305 306 309 314 318 320 320 319 318 318 317 316 314 312 310 308 307 307 306 306 306 306 303 302 303 303 304 303 303 303 302 302 302 302 302 301 301 299 297 295 295 295 295
262 260 258 260 265 272 278 282 284 285 287 291 291 291 293 294 292 292 293 294 296 298 299 303 308 305 301 301 301 303 307 312 313 309 306 308 312 314 316 316 314 311 307 304 304 307 311 315 317 317 317 317 316 315 314 313 312 311 310 310 311 311 311 312 312 311 309 308 307 306 305 305 304 304 302 301 301 301 300 299 297 294 292 293 294 293
266 261 259 262 267 274 281 285 286 288 290 290 290 292 295 294 292 292 292 292 293 293 296 300 302 300 299 300 302 305 309 309 306 303 303 306 310 310 309 309 310 310 308 306 306 308 310 312 313 314 314 313 313 312 311 311 311 311 311 312 312 312 313 314 315 314 313 312 311 310 308 308 308 307 305 304 303 302 301 300 299 295 292 291 291 290
268 267 266 268 272 278 284 287 289 292 293 291 291 293 294 291 291 291 292 293 295 295 296 297 297 297 298 299 300 302 303 301 301 302 304 308 309 306 303 303 304 303 302 301 301 303 304 305 307 308 309 309 309 308 307 307 308 309 309 309 309 309 310 312 314 314 314 314 313 312 311 310 310 309 309 308 308 307 306 305 304 302 296 290 288 288
267 270 272 274 279 283 287 288 290 293 295 295 294 293 291 289 289 291 294 297 298 296 294 294 295 297 298 294 291 294 297 298 299 303 307 310 311 306 303 303 302 302 302 303 304 304 303 303 304 304 304 305 304 304 304 305 306 306 306 305 304 304 305 308 311 312 312 312 312 310 310 309 309 309 309 309 310 310 310 309 308 306 302 297 294 294
267 270 272 275 279 283 286 287 289 292 295 295 292 291 291 290 290 291 294 296 294 293 294 296 297 297 295 290 286 288 293 296 300 303 306 308 308 306 306 307 307 306 306 308 309 308 307 306 306 305 304 302 301 301 303 303 304 305 304 303 303 302 303 305 307 308 308 308 307 306 306 306 306 306 307 308 308 308 309 308 307 306 305 303 301 300
266 268 271 273 278 282 284 286 288 291 293 290 286 287 288 288 288 288 289 289 290 292 294 296 295 293 292 291 289 290 293 297 299 301 301 301 300 300 302 303 303 302 304 306 308 308 307 307 307 307 306 303 301 301 301 301 301 301 301 301 302 301 300 301 302 302 302 302 301 301 301 302 303 304 304 305 304 304 304 303 303 302 301 301 301 300
264 267 271 275 278 281 284 286 288 290 289 286 285 285 285 284 283 283 284 287 291 292 292 292 290 288 288 288 287 289 291 293 293 293 294 295 296 298 300 300 299 301 304 308 309 309 308 308 307 307 307 305 303 302 301 300 299 298 298 298 298 297 297 298 298 298 298 298 297 297 297 297 299 300 301 301 300 300 299 298 297 297 297 297 297 297
264 267 271 274 277 279 281 283 285 285 285 284 284 284 284 285 285 285 287 290 291 290 290 290 288 287 287 287 289 291 293 293 292 292 291 292 294 297 298 298 298 300 304 307 308 308 307 307 306 306 306 305 304 303 301 300 299 299 299 298 297 297 297 297 297 297 297 296 296 296 295 295 296 297 298 298 297 296 296 295 295 295 295 294 293 293
265 268 270 272 275 277 278 279 280 281 282 283 283 282 282 284 285 286 286 287 286 285 288 289 289 289 289 290 292 293 292 292 291 291 291 291 293 295 297 298 298 300 302 305 306 304 304 303 303 303 303 302 302 302 301 299 298 298 298 298 298 299 299 298 298 298 299 299 299 299 298 298 298 298 297 297 296 294 294 294 294 294 293 293 293 292
263 266 268 271 274 276 276 276 277 279 281 281 282 282 283 284 284 283 282 280 278 279 284 286 286 287 288 289 289 288 287 287 287 288 290 291 293 295 298 299 299 299 300 301 301 300 300 300 301 301 300 300 301 300 299 298 297 297 297 297 297 298 298 298 299 300 301 302 303 303 303 301 301 300 299 298 297 295 293 293 294 295 294 293 294 293
262 265 268 271 273 273 273 274 275 276 277 278 280 283 284 285 285 282 280 279 276 277 280 282 282 282 284 284 285 284 284 285 287 288 290 292 295 297 299 299 298 297 297 297 296 295 296 297 298 298 298 300 301 301 299 298 298 298 298 297 298 298 298 298 298 299 300 302 303 303 303 302 301 300 299 297 297 296 295 295 296 297 296 295 295 295
263 266 268 270 271 271 272 273 273 273 273 275 278 280 282 283 283 282 281 280 279 280 282 283 282 282 282 282 282 283 284 286 287 288 291 293 297 299 299 298 296 295 294 293 292 291 292 293 295 295 296 297 299 299 298 298 298 298 298 298 299 300 300 299 299 299 300 302 302 302 301 301 299 297 296 295 295 296 297 297 297 298 297 295 295 296
264 266 267 268 269 269 270 271 272 272 273 275 276 277 278 279 279 279 280 281 283 285 287 287 285 283 282 281 282 283 285 286 287 288 291 294 296 297 296 295 294 293 291 291 291 291 292 293 295 295 295 296 296 295 295 295 296 296 296 297 298 298 299 300 300 300 301 302 302 302 301 299 297 296 295 295 296 297 298 298 297 297 297 297 297 298
264 265 266 266 266 266 266 267 268 269 271 272 273 274 275 276 276 276 277 279 281 284 285 285 285 284 282 283 284 285 286 287 288 290 291 292 292 292 292 292 292 291 291 291 291 292 293 294 295 295 294 294 294 293 292 293 294 295 295 296 296 297 297 297 298 299 300 301 301 300 299 297 296 296 296 296 297 298 298 297 296 297 297 298 298 298
264 265 265 266 266 265 265 266 268 269 269 270 272 273 274 275 276 277 278 279 280 281 281 282 282 283 284 285 286 287 287 288 288 289 290 290 290 290 289 290 290 290 290 291 291 291 292 293 294 293 292 292 291 290 290 291 292 292 293 294 294 295 295 296 297 299 300 300 300 299 298 296 295 294 295 295 296 296 295 295 295 296 296 295 295 295
Height
5835 5836 5837 5837 5836 5837 5837 5837 5836 5836 5836 5836 5836 5836 5835 5835 5836 5835 5835 5835 5836 5836 5835 5834 5833 5834 5834 5832 5830 5829 5829 5827 5826 5826 5825 5824 5823 5822 5820 5819 5818 5816 5815 5813 5811 5809 5807 5806 5804 5802 5800 5797 5796 5793 5791 5789 5787 5785 5783 5781 5778 5776 5774 5772 5770 5769 5768 5767 5767 5766 5766 5766 5765 5765 5765 5765 5764 5764 5764 5763 5763 5763 5762 5762 5762 5762
5836 5837 5839 5838 5837 5837 5838 5838 5838 5838 5838 5838 5838 5838 5837 5838 5838 5837 5836 5836 5837 5837 5836 5835 5834 5835 5834 5832 5830 5830 5829 5827 5827 5826 5825 5824 5823 5822 5821 5820 5818 5817 5815 5814 5812 5810 5809 5807 5805 5803 5801 5800 5798 5796 5793 5791 5789 5787 5785 5783 5780 5778 5776 5774 5772 5770 5769 5768 5767 5767 5767 5766 5766 5765 5765 5764 5764 5764 5763 5763 5762 5762 5762 5761 5761 5761
5838 5840 5841 5839 5838 5838 5839 5839 5839 5839 5839 5839 5839 5839 5840 5840 5839 5838 5837 5837 5838 5837 5837 5836 5835 5835 5834 5832 5831 5831 5830 5828 5828 5827 5826 5824 5823 5822 5821 5820 5819 5817 5816 5815 5813 5811 5810 5808 5806 5804 5803 5801 5800 5798 5796 5793 5791 5789 5787 5785 5783 5780 5778 5777 5775 5772 5771 5769 5768 5768 5767 5767 5766 5766 5765 5765 5764 5764 5763 5763 5762 5762 5762 5761 5761 5761
5841 5842 5842 5840 5839 5839 5839 5839 5839 5840 5840 5840 5840 5841 5841 5840 5839 5839 5839 5838 5838 5838 5838 5837 5836 5836 5834 5833 5832 5832 5832 5831 5830 5829 5827 5825 5824 5823 5822 5821 5820 5818 5817 5816 5814 5812 5811 5809 5807 5806 5804 5803 5801 5799 5797 5795 5793 5791 5789 5787 5785 5783 5781 5779 5777 5775 5773 5771 5770 5769 5768 5768 5767 5767 5766 5765 5764 5764 5763 5763 5762 5762 5761 5761 5761 5760
5842 5843 5842 5841 5840 5839 5839 5840 5841 5841 5841 5841 5842 5842 5842 5841 5840 5841 5840 5839 5839 5839 5838 5837 5836 5836 5835 5834 5834 5834 5833 5833 5832 5830 5828 5828 5827 5825 5823 5822 5821 5820 5818 5817 5815 5813 5812 5810 5808 5807 5806 5804 5802 5800 5799 5797 5795 5794 5792 5790 5788 5786 5784 5781 5779 5777 5775 5774 5772 5771 5770 5769 5768 5768 5767 5766 5765 5764 5764 5763 5762 5762 5762 5761 5761 5760
5843 5843 5844 5843 5841 5840 5840 5841 5843 5843 5843 5843 5843 5842 5843 5842 5842 5842 5842 5841 5841 5839 5838 5838 5837 5837 5836 5835 5836 5836 5835 5833 5832 5831 5830 5830 5829 5827 5824 5823 5822 5821 5819 5817 5815 5814 5813 5811 5810 5808 5807 5805 5804 5802 5800 5799 5798 5796 5794 5792 5790 5788 5786 5784 5782 5780 5778 5776 5774 5773 5772 5770 5769 5769 5767 5766 5766 5765 5764 5763 5763 5762 5762 5761 5761 5761
5845 5844 5844 5844 5844 5842 5842 5843 5844 5845 5845 5845 5844 5843 5844 5844 5843 5843 5843 5843 5842 5841 5840 5839 5838 5838 5837 5837 5837 5836 5835 5834 5832 5831 5832 5831 5830 5828 5826 5825 5824 5822 5820 5818 5816 5815 5814 5812 5811 5809 5808 5807 5805 5804 5802 5801 5800 5798 5796 5795 5793 5791 5789 5786 5784 5783 5781 5779 5777 5775 5774 5772 5771 5770 5768 5768 5767 5766 5765 5764 5763 5763 5762 5762 5761 5761
5846 5845 5844 5845 5845 5844 5844 5845 5845 5845 5846 5845 5844 5844 5845 5845 5844 5844 5843 5844 5844 5843 5841 5840 5840 5839 5838 5838 5837 5836 5835 5834 5832 5832 5833 5832 5830 5829 5827 5826 5824 5822 5820 5818 5817 5816 5815 5813 5812 5810 5809 5808 5807 5805 5804 5803 5801 5800 5798 5797 5795 5793 5791 5789 5787 5785 5783 5782 5780 5778 5776 5775 5773 5772 5770 5769 5768 5767 5766 5765 5764 5763 5763 5762 5762 5761
5847 5846 5846 5846 5846 5845 5845 5846 5846 5846 5846 5846 5845 5845 5846 5845 5844 5844 5844 5845 5844 5843 5843 5842 5841 5840 5839 5838 5838 5837 5835 5834 5833 5833 5833 5833 5831 5829 5828 5827 5825 5823 5821 5820 5819 5818 5816 5815 5813 5812 5810 5809 5808 5807 5806 5804 5803 5802 5800 5799 5797 5795 5794 5792 5790 5788 5786 5784 5782 5780 5779 5777 5776 5774 5772 5771 5770 5769 5767 5766 5765 5764 5764 5763 5762 5762
5847 5847 5847 5847 5847 5847 5847 5847 5847 5846 5846 5846 5846 5846 5846 5846 5845 5844 5845 5845 5844 5843 5843 5842 5841 5840 5839 5839 5838 5837 5836 5835 5834 5834 5833 5833 5832 5831 5829 5827 5826 5824 5823 5822 5820 5819 5817 5816 5815 5813 5812 5811 5809 5808 5807 5806 5805 5803 5802 5800 5799 5797 5796 5794 5792 5791 5789 5787 5785 5783 5782 5780 5778 5776 5774 5773 5772 5771 5769 5768 5767 5766 5765 5764 5763 5762
5848 5848 5848 5848 5848 5849 5849 5848 5848 5848 5847 5846 5846 5846 5846 5845 5845 5845 5845 5845 5844 5844 5843 5842 5841 5841 5841 5840 5839 5838 5836 5835 5835 5834 5833 5833 5833 5831 5830 5828 5827 5825 5824 5823 5821 5820 5819 5817 5816 5815 5813 5812 5811 5810 5809 5807 5806 5804 5803 5802 5800 5799 5797 5796 5794 5793 5791 5789 5788 5786 5784 5782 5781 5779 5777 5776 5774 5773 5771 5770 5769 5768 5766 5765 5764 5763
5848 5849 5849 5849 5849 5849 5849 5848 5848 5848 5848 5847 5846 5846 5846 5845 5844 5845 5845 5844 5844 5843 5843 5842 5841 5841 5842 5842 5840 5838 5837 5836 5835 5834 5834 5833 5833 5832 5830 5829 5828 5827 5826 5824 5822 5820 5819 5818 5817 5816 5814 5813 5812 5811 5810 5808 5807 5806 5804 5803 5802 5800 5799 5798 5796 5795 5793 5791 5790 5788 5786 5785 5783 5781 5780 5779 5777 5775 5774 5772 5771 5770 5768 5767 5766 5765
5849 5849 5849 5849 5850 5850 5849 5849 5849 5849 5848 5847 5847 5847 5846 5845 5845 5845 5845 5844 5843 5842 5841 5841 5841 5842 5843 5842 5840 5839 5838 5836 5835 5834 5834 5833 5832 5832 5831 5829 5828 5828 5827 5825 5823 5822 5821 5819 5818 5817 5815 5814 5813 5812 5810 5809 5808 5807 5806 5804 5803 5802 5801 5799 5798 5796 5795 5793 5792 5790 5788 5787 5785 5784 5782 5781 5779 5777 5776 5775 5774 5772 5771 5769 5768 5766
5850 5850 5849 5849 5849 5849 5849 5849 5849 5849 5848 5848 5847 5847 5846 5846 5845 5845 5844 5844 5843 5842 5841 5841 5841 5842 5842 5841 5840 5839 5838 5836 5835 5835 5834 5833 5832 5832 5831 5830 5829 5828 5827 5825 5824 5823 5822 5820 5818 5817 5816 5815 5814 5813 5811 5810 5809 5808 5806 5805 5804 5803 5802 5800 5799 5797 5796 5795 5793 5792 5790 5789 5787 5786 5784 5783 5781 5779 5778 5777 5776 5774 5773 5771 5770 5768
5850 5850 5850 5849 5849 5849 5849 5849 5849 5849 5848 5847 5848 5847 5847 5846 5845 5845 5844 5843 5843 5842 5842 5842 5842 5841 5841 5840 5839 5838 5837 5836 5836 5836 5835 5833 5832 5832 5832 5831 5830 5829 5828 5826 5825 5824 5823 5821 5819 5818 5817 5816 5815 5814 5812 5811 5809 5808 5807 5806 5805 5803 5802 5801 5800 5798 5797 5796 5794 5793 5791 5790 5788 5787 5786 5784 5783 5781 5780 5779 5777 5776 5774 5773 5771 5770
5850 5850 5850 5849 5849 5849 5849 5849 5849 5848 5848 5848 5848 5847 5847 5847 5846 5845 5844 5843 5843 5842 5842 5842 5841 5841 5840 5839 5838 5837 5837 5836 5836 5837 5836 5834 5833 5832 5832 5831 5830 5828 5828 5827 5826 5825 5823 5822 5820 5818 5817 5816 5815 5814 5813 5812 5810 5809 5807 5806 5805 5803 5802 5801 5800 5799 5798 5796 5795 5794 5792 5791 5790 5788 5787 5786 5784 5783 5781 5780 5779 5777 5775 5774 5772 5771
5850 5850 5849 5849 5849 5849 5849 5849 5849 5848 5848 5848 5847 5847 5847 5846 5845 5845 5844 5843 5843 5842 5842 5841 5841 5840 5840 5839 5838 5837 5837 5837 5836 5836 5835 5834 5833 5832 5831 5830 5829 5828 5827 5826 5825 5825 5823 5821 5820 5819 5817 5816 5815 5814 5813 5812 5810 5809 5807 5806 5805 5803 5802 5801 5800 5798 5797 5796 5795 5794 5793 5792 5790 5789 5788 5786 5785 5784 5782 5781 5779 5778 5776 5774 5773 5771
5850 5850 5849 5849 5849 5849 5849 5849 5849 5849 5848 5848 5848 5847 5847 5846 5845 5845 5844 5844 5842 5842 5841 5841 5840 5839 5839 5838 5838 5837 5837 5836 5836 5835 5834 5833 5832 5831 5830 5829 5828 5827 5826 5825 5824 5823 5822 5821 5819 5819 5818 5817 5816 5814 5813 5812 5810 5809 5808 5806 5805 5803 5802 5801 5799 5798 5797 5796 5795 5794 5793 5792 5791 5789 5788 5787 5785 5784 5782 5781 5780 5778 5776 5775 5773 5772
5849 5849 5849 5849 5849 5849 5849 5849 5849 5849 5848 5848 5848 5847 5847 5846 5846 5845 5845 5844 5843 5841 5841 5840 5839 5838 5838 5837 5836 5836 5836 5835 5834 5834 5833 5832 5830 5829 5828 5828 5827 5826 5825 5824 5823 5822 5821 5821 5820 5819 5819 5818 5816 5814 5813 5811 5810 5809 5808 5806 5805 5803 5802 5800 5799 5798 5796 5795 5794 5793 5792 5791 5790 5789 5788 5786 5785 5783 5782 5781 5779 5778 5776 5774 5773 5772
5849 5849 5849 5849 5849 5849 5849 5848 5848 5848 5848 5848 5848 5847 5847 5846 5846 5845 5845 5844 5843 5842 5841 5840 5839 5838 5837 5837 5836 5835 5834 5834 5833 5832 5831 5830 5829 5827 5827 5826 5826 5825 5824 5823 5822 5822 5821 5821 5820 5819 5818 5817 5815 5814 5813 5811 5810 5808 5807 5806 5804 5803 5801 5800 5798 5797 5796 5795 5793 5792 5791 5790 5789 5788 5787 5786 5784 5783 5781 5780 5778 5777 5775 5774 5773 5771
5849 5848 5848 5849 5849 5849 5848 5848 5848 5848 5848 5848 5848 5847 5847 5846 5846 5845 5845 5844 5844 5842 5841 5840 5839 5838 5837 5836 5835 5834 5833 5833 5832 5832 5830 5829 5829 5827 5826 5825 5825 5825 5824 5823 5822 5821 5820 5820 5819 5818 5817 5816 5815 5814 5812 5811 5810 5808 5807 5805 5804 5802 5801 5799 5798 5797 5795 5794 5793 5792 5791 5789 5788 5787 5786 5785 5783 5782 5780 5778 5776 5775 5774 5773 5772 5770
5848 5847 5847 5848 5849 5848 5848 5848 5848 5848 5848 5848 5847 5847 5846 5846 5845 5845 5844 5844 5843 5842 5841 5840 5839 5839 5838 5836 5835 5834 5833 5833 5832 5831 5830 5829 5828 5827 5826 5824 5823 5823 5823 5822 5821 5820 5819 5818 5818 5817 5816 5815 5814 5813 5812 5810 5809 5808 5806 5804 5803 5802 5800 5799 5798 5796 5795 5794 5792 5791 5790 5788 5787 5786 5785 5783 5782 5781 5779 5777 5775 5774 5772 5771 5770 5768
5846 5846 5846 5847 5848 5847 5847 5848 5847 5847 5847 5847 5847 5846 5846 5845 5845 5845 5844 5843 5842 5841 5840 5839 5838 5838 5837 5836 5835 5834 5834 5833 5832 5831 5830 5829 5828 5826 5825 5823 5822 5821 5821 5821 5820 5819 5818 5817 5816 5816 5815 5813 5812 5811 5810 5809 5808 5807 5806 5804 5802 5801 5799 5798 5797 5795 5794 5793 5792 5790 5789 5787 5786 5785 5783 5782 5781 5779 5778 5776 5775 5773 5771 5770 5768 5766
5845 5845 5845 5846 5847 5847 5846 5847 5846 5846 5846 5846 5846 5845 5845 5845 5844 5844 5843 5842 5841 5840 5839 5838 5837 5836 5835 5834 5834 5833 5832 5832 5832 5831 5830 5828 5827 5825 5824 5822 5821 5820 5819 5819 5818 5818 5817 5816 5815 5814 5813 5812 5811 5810 5809 5808 5807 5806 5805 5803 5802 5800 5799 5797 5796 5795 5793 5792 5790 5789 5788 5787 5785 5783 5782 5780 5779 5778 5777 5775 5773 5772 5770 5768 5766 5765
5845 5844 5844 5844 5845 5845 5845 5846 5845 5845 5845 5845 5845 5844 5844 5843 5843 5843 5843 5842 5841 5840 5839 5838 5836 5835 5834 5833 5832 5831 5831 5831 5830 5830 5829 5828 5826 5824 5823 5821 5820 5819 5818 5817 5816 5816 5815 5815 5814 5813 5812 5811 5810 5809 5808 5806 5805 5804 5802 5802 5800 5799 5798 5796 5795 5794 5792 5791 5789 5788 5786 5785 5783 5782 5780 5779 5777 5776 5775 5773 5772 5770 5768 5767 5765 5763
5844 5843 5843 5843 5843 5844 5845 5845 5844 5844 5844 5844 5844 5844 5843 5843 5842 5841 5841 5840 5839 5838 5837 5836 5835 5834 5832 5831 5830 5829 5829 5829 5828 5827 5827 5826 5825 5824 5822 5820 5819 5818 5817 5816 5815 5814 5813 5812 5812 5811 5810 5810 5809 5808 5806 5805 5803 5802 5800 5799 5798 5797 5796 5795 5794 5793 5791 5790 5788 5787 5785 5783 5782 5780 5779 5777 5776 5774 5773 5771 5770 5768 5767 5765 5764 5762
5842 5842 5842 5842 5842 5843 5843 5843 5843 5843 5842 5842 5842 5842 5842 5842 5841 5839 5838 5838 5838 5837 5835 5834 5833 5832 5830 5828 5827 5827 5826 5825 5824 5823 5822 5822 5822 5822 5820 5819 5817 5816 5816 5815 5814 5813 5811 5810 5809 5808 5808 5808 5807 5806 5805 5804 5802 5801 5799 5798 5797 5796 5795 5794 5793 5791 5790 5788 5787 5785 5784 5782 5781 5779 5777 5776 5774 5772 5771 5770 5768 5767 5765 5763 5762 5760
5841 5841 5841 5841 5841 5841 5841 5841 5841 5841 5841 5840 5840 5839 5839 5839 5839 5838 5837 5836 5835 5835 5834 5832 5831 5830 5828 5826 5825 5825 5823 5822 5821 5820 5819 5818 5818 5818 5817 5817 5816 5815 5814 5813 5812 5811 5810 5808 5807 5805 5805 5805 5804 5803 5802 5802 5801 5800 5799 5797 5796 5794 5793 5792 5791 5790 5788 5787 5785 5784 5782 5780 5779 5777 5776 5774 5772 5771 5769 5767 5766 5764 5763 5761 5759 5758
5840 5840 5840 5840 5839 5839 5839 5838 5838 5839 5839 5839 5838 5837 5836 5836 5836 5836 5835 5833 5833 5833 5832 5830 5829 5828 5826 5825 5825 5823 5822 5821 5820 5818 5817 5816 5815 5814 5815 5815 5814 5813 5812 5811 5810 5809 5808 5807 5805 5803 5802 5801 5801 5800 5800 5799 5799 5798 5797 5796 5794 5793 5791 5790 5789 5788 5786 5785 5784 5782 5780 5778 5776 5775 5773 5772 5770 5769 5767 5765 5764 5762 5760 5759 5757 5755
5838 5838 5838 5838 5838 5837 5837 5836 5836 5836 5837 5837 5836 5835 5834 5833 5833 5833 5832 5831 5830 5830 5829 5829 5828 5826 5823 5823 5824 5822 5821 5820 5819 5818 5816 5815 5813 5812 5812 5812 5812 5811 5810 5809 5808 5807 5806 5805 5804 5803 5801 5799 5799 5798 5797 5796 5795 5794 5794 5793 5792 5791 5790 5788 5787 5786 5784 5783 5781 5780 5778 5776 5774 5772 5771 5769 5767 5766 5764 5763 5761 5759 5758 5756 5755 5753
5836 5836 5836 5837 5837 5835 5834 5834 5834 5834 5835 5836 5834 5833 5832 5831 5831 5830 5829 5828 5828 5827 5827 5827 5826 5824 5822 5821 5821 5820 5819 5819 5818 5817 5816 5814 5813 5811 5810 5809 5809 5809 5808 5806 5806 5805 5804 5803 5802 5801 5800 5798 5797 5796 5795 5794 5793 5792 5791 5790 5789 5788 5787 5786 5785 5783 5782 5780 5779 5777 5775 5774 5772 5770 5768 5766 5764 5762 5760 5759 5758 5756 5755 5753 5751 5750
5835 5834 5834 5835 5835 5833 5832 5832 5832 5832 5833 5833 5832 5831 5830 5829 5828 5828 5827 5826 5825 5825 5825 5825 5824 5823 5820 5819 5818 5818 5817 5817 5817 5816 5815 5813 5812 5811 5809 5808 5807 5806 5805 5804 5803 5802 5802 5801 5800 5799 5798 5797 5796 5794 5793 5792 5791 5790 5788 5787 5786 5785 5784 5783 5782 5780 5779 5778 5776 5774 5773 5771 5769 5767 5765 5764 5762 5760 5758 5756 5755 5753 5752 5750 5748 5747
5832 5832 5832 5833 5833 5832 5830 5830 5830 5830 5830 5830 5830 5830 5828 5827 5827 5826 5824 5823 5823 5823 5824 5823 5822 5820 5819 5817 5816 5815 5815 5815 5815 5814 5812 5812 5811 5810 5808 5807 5805 5804 5802 5802 5801 5800 5799 5798 5798 5797 5796 5796 5795 5793 5792 5791 5789 5788 5787 5785 5783 5782 5781 5780 5778 5777 5776 5774 5772 5771 5769 5767 5766 5764 5762 5760 5759 5757 5756 5754 5752 5751 5749 5748 5746 5744
5830 5830 5829 5830 5831 5830 5829 5828 5828 5828 5828 5828 5828 5828 5827 5826 5825 5824 5822 5821 5821 5822 5822 5822 5821 5819 5817 5816 5814 5813 5813 5813 5813 5812 5811 5809 5809 5808 5807 5806 5804 5803 5801 5800 5799 5798 5797 5796 5796 5795 5794 5793 5792 5791 5790 5788 5787 5786 5784 5783 5781 5779 5778 5777 5776 5774 5773 5771 5769 5768 5766 5764 5762 5761 5759 5757 5756 5754 5753 5751 5750 5748 5747 5745 5743 5742
5828 5828 5828 5828 5828 5828 5827 5827 5827 5827 5826 5825 5826 5826 5826 5825 5824 5823 5821 5819 5819 5820 5820 5821 5820 5818 5816 5814 5813 5812 5812 5812 5811 5811 5809 5807 5806 5806 5806 5804 5803 5802 5801 5800 5798 5797 5796 5795 5794 5793 5791 5790 5789 5788 5787 5786 5785 5783 5782 5780 5779 5777 5776 5775 5774 5773 5771 5769 5767 5765 5763 5762 5760 5758 5756 5754 5753 5751 5749 5748 5747 5745 5743 5742 5740 5738
5826 5826 5826 5826 5826 5826 5826 5825 5825 5825 5824 5823 5823 5823 5823 5823 5822 5821 5819 5817 5817 5817 5817 5818 5818 5816 5814 5813 5811 5811 5811 5811 5810 5809 5807 5805 5804 5803 5803 5803 5802 5800 5799 5798 5797 5796 5795 5793 5792 5791 5789 5788 5787 5786 5785 5784 5783 5781 5779 5778 5776 5774 5773 5773 5772 5771 5769 5766 5765 5763 5761 5759 5758 5756 5754 5752 5749 5747 5746 5744 5743 5742 5740 5738 5737 5735
5824 5824 5824 5823 5823 5824 5823 5823 5823 5823 5823 5822 5820 5819 5820 5820 5819 5818 5816 5815 5815 5814 5814 5815 5815 5814 5812 5810 5809 5808 5808 5809 5808 5807 5805 5804 5802 5801 5801 5800 5800 5799 5798 5797 5795 5794 5793 5791 5790 5788 5787 5786 5784 5783 5783 5781 5780 5779 5777 5775 5774 5772 5770 5769 5768 5768 5766 5764 5763 5761 5759 5757 5755 5753 5751 5749 5747 5744 5742 5741 5739 5738 5736 5734 5733 5731
5820 5821 5821 5821 5821 5821 5820 5820 5820 5820 5821 5820 5818 5817 5818 5817 5816 5815 5814 5813 5813 5812 5811 5812 5812 5812 5810 5808 5806 5806 5806 5805 5804 5803 5803 5802 5802 5800 5799 5798 5797 5796 5795 5794 5793 5791 5790 5788 5787 5786 5784 5783 5782 5780 5779 5778 5777 5776 5774 5773 5771 5769 5767 5765 5764 5763 5762 5761 5759 5758 5755 5754 5752 5750 5748 5747 5745 5742 5740 5737 5735 5733 5732 5731 5729 5727
5815 5816 5817 5818 5818 5818 5817 5817 5816 5817 5818 5817 5815 5814 5814 5813 5812 5811 5810 5810 5810 5809 5808 5809 5809 5808 5808 5806 5804 5804 5803 5801 5800 5799 5799 5800 5800 5799 5797 5796 5795 5794 5793 5792 5791 5789 5788 5786 5785 5783 5782 5781 5779 5777 5776 5775 5774 5773 5772 5770 5768 5766 5764 5762 5761 5760 5758 5757 5755 5754 5752 5750 5748 5746 5744 5743 5742 5740 5737 5734 5732 5730 5728 5727 5725 5724
5812 5812 5813 5813 5814 5814 5813 5813 5813 5813 5814 5814 5812 5810 5810 5809 5808 5808 5807 5807 5807 5806 5805 5805 5805 5805 5806 5805 5803 5801 5800 5798 5797 5796 5795 5795 5795 5794 5794 5793 5792 5790 5789 5788 5787 5786 5785 5784 5783 5782 5780 5778 5776 5774 5773 5771 5771 5770 5769 5767 5766 5764 5761 5759 5758 5756 5755 5753 5751 5750 5748 5746 5744 5743 5741 5739 5738 5736 5734 5732 5729 5727 5725 5724 5722 5721
5809 5809 5809 5809 5810 5810 5810 5809 5809 5810 5811 5810 5808 5806 5806 5805 5805 5804 5804 5804 5803 5803 5802 5802 5802 5801 5802 5802 5800 5799 5798 5797 5796 5795 5793 5791 5790 5789 5789 5788 5787 5786 5785 5784 5783 5782 5781 5780 5780 5779 5777 5776 5774 5772 5770 5768 5767 5766 5764 5763 5762 5760 5758 5756 5754 5753 5751 5750 5748 5746 5744 5743 5741 5739 5738 5735 5734 5732 5731 5729 5727 5725 5723 5721 5719 5718
5806 5805 5805 5806 5807 5806 5805 5805 5804 5806 5807 5806 5804 5803 5802 5802 5801 5801 5801 5801 5800 5800 5799 5799 5798 5797 5797 5797 5796 5795 5794 5794 5793 5792 5791 5789 5788 5786 5785 5784 5783 5783 5782 5781 5780 5778 5777 5776 5775 5774 5773 5772 5770 5769 5766 5764 5763 5762 5760 5759 5758 5756 5753 5752 5750 5749 5748 5747 5745 5743 5741 5739 5737 5736 5734 5732 5730 5729 5728 5726 5724 5722 5720 5718 5716 5715
5801 5801 5801 5802 5802 5802 5801 5800 5800 5801 5802 5801 5800 5800 5799 5798 5798 5798 5798 5798 5798 5797 5796 5795 5794 5793 5793 5792 5791 5791 5791 5791 5790 5789 5787 5786 5784 5783 5782 5781 5780 5779 5778 5776 5775 5774 5773 5771 5770 5769 5768 5766 5765 5764 5762 5760 5758 5757 5756 5755 5754 5752 5749 5747 5746 5744 5743 5742 5741 5739 5737 5735 5734 5732 5731 5729 5727 5725 5724 5723 5721 5719 5717 5715 5713 5711
5797 5797 5798 5798 5798 5798 5797 5797 5797 5797 5796 5796 5796 5795 5794 5793 5793 5794 5794 5794 5793 5792 5791 5790 5789 5788 5788 5788 5788 5787 5786 5786 5785 5784 5783 5782 5781 5781 5779 5778 5777 5776 5774 5773 5771 5770 5768 5767 5765 5764 5763 5761 5760 5759 5757 5755 5754 5752 5751 5750 5749 5747 5745 5743 5740 5739 5738 5737 5736 5735 5734 5732 5730 5728 5726 5725 5722 5720 5719 5718 5716 5714 5713 5711 5709 5707
5792 5793 5793 5794 5794 5794 5793 5793 5793 5792 5792 5791 5791 5791 5791 5790 5789 5789 5790 5790 5789 5788 5786 5785 5785 5784 5784 5784 5784 5783 5782 5780 5779 5779 5779 5779 5778 5778 5777 5776 5775 5774 5772 5771 5769 5767 5765 5763 5762 5760 5759 5757 5756 5754 5752 5750 5749 5747 5746 5745 5743 5741 5739 5737 5735 5733 5732 5732 5731 5730 5729 5727 5725 5723 5721 5719 5717 5715 5714 5712 5711 5709 5707 5706 5704 5702
5788 5788 5788 5789 5789 5789 5789 5788 5788 5788 5787 5787 5787 5786 5786 5786 5785 5785 5785 5785 5785 5784 5783 5782 5781 5781 5780 5780 5779 5778 5777 5776 5775 5775 5775 5775 5775 5775 5774 5773 5772 5770 5769 5767 5765 5763 5761 5760 5758 5756 5754 5753 5752 5750 5748 5745 5743 5742 5741 5740 5738 5736 5734 5732 5729 5727 5726 5725 5725 5724 5723 5721 5719 5717 5714 5712 5710 5709 5708 5706 5705 5703 5701 5700 5698 5696
5783 5783 5784 5785 5785 5784 5784 5784 5784 5784 5783 5782 5782 5781 5781 5780 5780 5780 5780 5780 5780 5779 5779 5778 5777 5776 5776 5776 5775 5773 5772 5772 5771 5771 5771 5771 5771 5770 5770 5769 5767 5765 5764 5762 5760 5758 5756 5755 5753 5751 5749 5748 5746 5744 5742 5740 5738 5736 5735 5734 5732 5730 5729 5726 5725 5723 5721 5720 5719 5718 5716 5715 5713 5711 5708 5706 5704 5702 5701 5700 5698 5697 5695 5693 5691 5689
5778 5779 5780 5780 5780 5779 5779 5779 5779 5780 5779 5778 5777 5777 5776 5775 5775 5775 5775 5774 5773 5773 5773 5773 5773 5772 5772 5771 5769 5768 5768 5768 5768 5767 5766 5766 5765 5765 5764 5762 5761 5760 5758 5756 5755 5753 5751 5750 5748 5747 5745 5743 5741 5739 5736 5734 5732 5731 5729 5727 5725 5723 5721 5720 5718 5717 5716 5715 5713 5711 5710 5708 5706 5704 5702 5700 5698 5697 5695 5694 5692 5690 5688 5686 5684 5682
5774 5775 5775 5775 5775 5775 5775 5774 5774 5774 5774 5773 5773 5773 5772 5771 5770 5770 5769 5768 5767 5767 5767 5767 5768 5767 5766 5765 5765 5765 5765 5765 5764 5763 5762 5761 5760 5759 5757 5755 5754 5752 5751 5750 5748 5747 5745 5744 5742 5741 5739 5737 5735 5733 5730 5728 5726 5725 5723 5721 5719 5716 5714 5713 5711 5710 5709 5708 5706 5705 5703 5701 5698 5696 5695 5693 5692 5691 5689 5687 5685 5683 5681 5679 5677 5675
5769 5770 5769 5770 5770 5771 5770 5769 5769 5770 5769 5768 5768 5768 5768 5767 5766 5766 5765 5764 5763 5763 5762 5762 5761 5760 5760 5760 5760 5760 5760 5759 5759 5758 5757 5755 5754 5752 5750 5748 5747 5745 5744 5743 5741 5740 5738 5737 5735 5734 5732 5730 5728 5726 5724 5722 5720 5718 5716 5714 5712 5710 5708 5706 5704 5703 5702 5701 5700 5698 5696 5693 5691 5689 5687 5686 5685 5684 5682 5679 5677 5676 5674 5672 5670 5668
5764 5764 5764 5764 5765 5765 5765 5765 5764 5764 5764 5763 5763 5763 5763 5763 5762 5762 5761 5760 5759 5758 5757 5756 5755 5754 5754 5755 5755 5754 5754 5753 5752 5751 5750 5748 5747 5745 5743 5741 5740 5738 5737 5736 5735 5733 5731 5729 5727 5725 5724 5722 5720 5719 5718 5716 5715 5712 5709 5707 5705 5703 5701 5699 5697 5696 5694 5693 5692 5690 5688 5686 5684 5682 5681 5679 5678 5676 5674 5672 5670 5669 5667 5665 5663 5661